Weather History for Fort Leonard Wood, MO

Change the Weather History Date:

Tuesday, March 20, 2012

  Actual Average Record
Temperature  
Mean Temperature 66 °F -  
Max Temperature 76 °F 54 °F 81 °F (2011)
Min Temperature 55 °F 38 °F 24 °F (2013)
Growing Degree Days 16 (Base 50)    
Moisture  
Dew Point 59 °F    
Average Humidity 92    
Maximum Humidity 100    
Minimum Humidity 53    
Precipitation  
Precipitation 1.36 in - - ()
Sea Level Pressure  
Sea Level Pressure 29.85 in    
Wind  
Wind Speed 8 mph (NNE)    
Max Wind Speed 23 mph    
Max Gust Speed 34 mph    
Visibility 8 miles    
Events Rain , Thunderstorm    
Averages and records for this station are not official NWS values.
T = Trace of Precipitation, MM = Missing Value Source: NWS Daily Summary

Daily Weather History Graph

Daily Weather History Graph

Search for Another Location

Airport:

Trip Planner

Search our weather history database for the weather conditions in past years. The results will help you decide how hot, cold, wet, or windy it might be!

Date:

Astronomy

Mar. 20, 2012 Rise Set
Actual Time 7:11 AM CDT 7:20 PM CDT
Civil Twilight 6:45 AM CDT 7:47 PM CDT
Nautical Twilight 6:14 AM CDT 8:17 PM CDT
Astronomical Twilight 5:43 AM CDT 8:48 PM CDT
Moon 5:52 AM CDT (3/20) 5:50 PM CDT (3/20)
Length of Visible Light 13h 01m
Length of Day
12h 09m
Waning Crescent, 4% of the Moon is Illuminated
Mar 20
Waning Crescent
Mar 22
New
Mar 30
First Quarter
Apr 6
Full
Apr 13
Last Quarter

Hourly Weather History & Observations

Time (CDT) Temp. Dew Point Humidity Pressure Visibility Wind Dir Wind Speed Gust Speed Precip Events Conditions
12:55 AM 68.5 °F 59.0 °F 72% 29.78 in 10.0 mi SSE 17.3 mph 24.2 mph N/A   Overcast
1:48 AM 68.0 °F 57.2 °F 68% 29.83 in 10.0 mi West 16.1 mph 27.6 mph N/A   Overcast
1:51 AM 66.2 °F 55.4 °F 68% 29.83 in 10.0 mi West 9.2 mph 27.6 mph N/A Rain Light Rain
1:55 AM 63.3 °F 55.8 °F 76% 29.84 in 10.0 mi West 11.5 mph 27.6 mph 0.00 in   Light Drizzle
1:56 AM 62.6 °F 55.4 °F 77% 29.84 in 10.0 mi West 9.2 mph 27.6 mph N/A   Light Drizzle
2:19 AM 59.0 °F 57.2 °F 94% 29.86 in 10.0 mi NW 8.1 mph - N/A Rain Light Rain
2:47 AM 57.2 °F 57.2 °F 100% 29.86 in 10.0 mi North 3.5 mph - N/A   Overcast
2:55 AM 57.6 °F 57.2 °F 99% 29.85 in 10.0 mi NNW 4.6 mph - 0.02 in   Overcast
2:58 AM 57.2 °F 57.2 °F 100% 29.85 in 10.0 mi Calm Calm - N/A Rain Light Rain
3:54 AM 57.2 °F 57.2 °F 100% 29.81 in 10.0 mi NE 6.9 mph - N/A   Overcast
3:55 AM 57.2 °F 57.0 °F 99% 29.81 in 10.0 mi NE 5.8 mph - 0.01 in   Overcast
4:03 AM 57.2 °F 57.2 °F 100% 29.82 in 10.0 mi ENE 3.5 mph - N/A   Overcast
4:10 AM 57.2 °F 57.2 °F 100% 29.81 in 10.0 mi ENE 5.8 mph - N/A Rain Light Rain
4:36 AM 57.2 °F 57.2 °F 100% 29.83 in 2.5 mi Calm Calm - N/A Rain Light Rain
4:38 AM 57.2 °F 57.2 °F 100% 29.83 in 2.0 mi Calm Calm - N/A Rain Heavy Rain
4:39 AM 57.2 °F 57.2 °F 100% 29.83 in 1.8 mi Calm Calm - N/A Rain Heavy Rain
4:44 AM 57.2 °F 57.2 °F 100% 29.83 in 2.0 mi West 3.5 mph - N/A Rain Light Rain
4:46 AM 57.2 °F 57.2 °F 100% 29.83 in 3.0 mi Calm Calm - N/A Rain Light Rain
4:55 AM 56.5 °F 56.5 °F 100% 29.83 in 9.0 mi North 3.5 mph - 0.08 in Rain Light Rain
5:03 AM 57.2 °F 57.2 °F 100% 29.83 in 10.0 mi Calm Calm - N/A   Overcast
5:06 AM 57.2 °F 57.2 °F 100% 29.83 in 10.0 mi Calm Calm - N/A   Light Drizzle
5:40 AM 57.2 °F 57.2 °F 100% 29.85 in 10.0 mi West 3.5 mph - N/A   Overcast
5:44 AM 57.2 °F 57.2 °F 100% 29.84 in 10.0 mi NNW 4.6 mph - N/A   Light Drizzle
5:54 AM 55.4 °F 55.4 °F 100% 29.83 in 10.0 mi North 5.8 mph - N/A   Overcast
5:55 AM 56.1 °F 56.1 °F 100% 29.83 in 10.0 mi North 5.8 mph - 0.00 in   Overcast
6:55 AM 55.9 °F 55.9 °F 100% 29.83 in 10.0 mi NNE 3.5 mph - N/A   Overcast
7:55 AM 56.3 °F 56.3 °F 100% 29.82 in 10.0 mi ENE 6.9 mph - N/A   Overcast
7:57 AM 57.2 °F 57.2 °F 100% 29.82 in 10.0 mi ENE 6.9 mph - N/A   Overcast
8:55 AM 58.5 °F 57.2 °F 96% 29.83 in 10.0 mi East 8.1 mph - N/A   Overcast
9:55 AM 65.7 °F 59.4 °F 80% 29.82 in 10.0 mi SE 18.4 mph - N/A   Scattered Clouds
10:55 AM 69.3 °F 59.7 °F 72% 29.83 in 10.0 mi SSE 12.7 mph 25.3 mph N/A   Mostly Cloudy
10:59 AM 69.8 °F 59.0 °F 68% 29.82 in 10.0 mi SSE 20.7 mph 26.5 mph N/A   Mostly Cloudy
11:00 AM 69.8 °F 59.0 °F 68% 29.83 in 10.0 mi SE 17.3 mph 26.5 mph N/A   Mostly Cloudy
11:01 AM 69.8 °F 59.0 °F 68% 29.83 in 10.0 mi SSE 16.1 mph 26.5 mph N/A   Mostly Cloudy
11:02 AM 68.0 °F 59.0 °F 73% 29.83 in 10.0 mi SSE 18.4 mph 26.5 mph N/A   Mostly Cloudy
11:55 AM 71.2 °F 59.0 °F 65% 29.81 in 10.0 mi SSE 18.4 mph 28.8 mph 0.01 in   Overcast
12:55 PM 73.2 °F 59.4 °F 62% 29.80 in 10.0 mi SSE 15.0 mph 29.9 mph N/A   Mostly Cloudy
1:55 PM 75.4 °F 57.6 °F 54% 29.77 in 10.0 mi SSE 23.0 mph 34.5 mph N/A   Scattered Clouds
2:55 PM 76.3 °F 57.7 °F 53% 29.78 in 10.0 mi SSE 17.3 mph 32.2 mph N/A   Scattered Clouds
3:55 PM 74.5 °F 57.2 °F 55% 29.78 in 10.0 mi SSE 20.7 mph 29.9 mph N/A   Overcast
4:55 PM 72.3 °F 57.7 °F 60% 29.79 in 10.0 mi South 10.4 mph 18.4 mph N/A   Overcast
5:55 PM 64.9 °F 60.1 °F 84% 29.83 in 10.0 mi West 4.6 mph - N/A   Overcast
5:58 PM 64.4 °F 60.8 °F 88% 29.83 in 10.0 mi Variable 4.6 mph - N/A   Light Drizzle
6:07 PM 64.4 °F 59.0 °F 83% 29.84 in 10.0 mi Calm Calm - N/A   Overcast
6:31 PM 64.4 °F 59.0 °F 83% 29.83 in 10.0 mi NNW 3.5 mph - N/A   Light Drizzle
6:37 PM 64.4 °F 60.8 °F 88% 29.83 in 8.0 mi NNW 4.6 mph - N/A Rain Light Rain
6:38 PM 64.4 °F 60.8 °F 88% 29.83 in 8.0 mi NNW 4.6 mph - N/A Rain Light Rain
6:43 PM 62.6 °F 60.8 °F 94% 29.84 in 9.0 mi NNW 4.6 mph - N/A Rain Light Rain
6:45 PM 62.6 °F 60.8 °F 94% 29.84 in 4.0 mi Calm Calm - N/A Rain Light Rain
6:55 PM 62.4 °F 61.3 °F 96% 29.84 in 2.5 mi NNW 4.6 mph - 0.04 in Rain Rain
6:56 PM 62.6 °F 60.8 °F 94% 29.85 in 3.0 mi NNW 3.5 mph - N/A Rain Light Rain
7:02 PM 62.6 °F 60.8 °F 94% 29.85 in 4.0 mi North 3.5 mph - N/A Rain , Thunderstorm Thunderstorms and Rain
7:32 PM 62.6 °F 62.6 °F 100% 29.85 in 7.0 mi East 5.8 mph - N/A Rain Light Rain
7:55 PM 61.7 °F 61.7 °F 100% 29.85 in 9.0 mi NNE 3.5 mph - 0.16 in Rain , Thunderstorm Rain
8:11 PM 60.8 °F 60.8 °F 100% 29.88 in 5.0 mi SW 6.9 mph - N/A Rain , Thunderstorm Thunderstorms and Rain
8:20 PM 60.8 °F 60.8 °F 100% 29.90 in 3.0 mi WSW 3.5 mph - N/A Rain , Thunderstorm Heavy Thunderstorms and Rain
8:22 PM 60.8 °F 60.8 °F 100% 29.91 in 2.5 mi West 4.6 mph - N/A Rain , Thunderstorm Heavy Thunderstorms and Rain
8:31 PM 60.8 °F 60.8 °F 100% 29.91 in 3.0 mi West 9.2 mph 17.3 mph N/A Rain , Thunderstorm Heavy Thunderstorms and Rain
8:44 PM 59.0 °F 59.0 °F 100% 29.91 in 2.0 mi West 9.2 mph - N/A Rain , Thunderstorm Heavy Rain
8:55 PM 59.4 °F 59.4 °F 100% 29.90 in 3.0 mi Variable 4.6 mph - 0.49 in Rain , Thunderstorm Light Rain
9:25 PM 59.0 °F 59.0 °F 100% 29.90 in 2.5 mi Calm Calm - N/A Rain Rain
9:31 PM 59.0 °F 59.0 °F 100% 29.91 in 1.8 mi East 3.5 mph - N/A Rain Heavy Rain
9:35 PM 59.0 °F 59.0 °F 100% 29.91 in 2.0 mi East 3.5 mph - N/A Rain Heavy Rain
9:41 PM 59.0 °F 59.0 °F 100% 29.91 in 3.0 mi Calm Calm - N/A Rain Rain
9:55 PM 58.5 °F 58.5 °F 100% 29.90 in 8.0 mi North 5.8 mph - 0.28 in Rain Light Rain
10:01 PM 59.0 °F 59.0 °F 100% 29.90 in 10.0 mi North 3.5 mph - N/A Rain Light Rain
10:11 PM 59.0 °F 59.0 °F 100% 29.91 in 2.5 mi Calm Calm - N/A Rain Heavy Rain
10:17 PM 59.0 °F 59.0 °F 100% 29.91 in 2.0 mi NE 4.6 mph - N/A Rain Light Rain
10:20 PM 59.0 °F 59.0 °F 100% 29.90 in 3.0 mi NNE 4.6 mph - N/A Rain Light Rain
10:28 PM 59.0 °F 59.0 °F 100% 29.90 in 10.0 mi NNE 3.5 mph - N/A Rain Light Rain
10:29 PM 59.0 °F 59.0 °F 100% 29.91 in 10.0 mi NNE 3.5 mph - N/A Rain Light Rain
10:32 PM 59.0 °F 59.0 °F 100% 29.90 in 8.0 mi NNE 3.5 mph - N/A Rain Light Rain
10:33 PM 59.0 °F 59.0 °F 100% 29.91 in 7.0 mi NE 3.5 mph - N/A Rain Rain
10:49 PM 59.0 °F 59.0 °F 100% 29.90 in 3.0 mi North 4.6 mph - N/A Rain Rain
10:55 PM 58.3 °F 58.3 °F 100% 29.89 in 4.0 mi NE 8.1 mph - 0.20 in Rain Light Rain
10:59 PM 59.0 °F 59.0 °F 100% 29.90 in 8.0 mi NE 6.9 mph - N/A Rain Light Rain
11:01 PM 59.0 °F 59.0 °F 100% 29.91 in 9.0 mi Variable 3.5 mph - N/A Rain Light Rain
11:07 PM 59.0 °F 59.0 °F 100% 29.92 in 9.0 mi Calm Calm - N/A Rain Light Rain
11:25 PM 59.0 °F 59.0 °F 100% 29.90 in 9.0 mi NNE 3.5 mph - N/A Rain Light Rain
11:46 PM 59.0 °F 59.0 °F 100% 29.91 in 7.0 mi NNE 4.6 mph - N/A Rain Light Rain
11:55 PM 58.3 °F 58.3 °F 100% 29.91 in 7.0 mi NNE 4.6 mph - 0.07 in Rain Light Rain